Location: Belmont
(13.0833°N, 59.6000°W)
Time: 01:09:51
(UTC+00:00)

Cosmos 1544 - Pass Details

Date: 17 September 2019
Orbit: 475 x 491 km, 82.5° (Epoch: 22 October)

Event Time Altitude Azimuth Distance (km) Brightness Sun altitude
Rises 22:38:05 0° 175° (S) 2,514 6.6 -10.5°
Reaches altitude 10° 22:40:12 10° 169° (S) 1,636 5.6 -11.0°
Maximum altitude 22:43:40 49° 93° (E) 615 3.1 -11.9°
Drops below altitude 10° 22:47:08 10° 18° (NNE) 1,636 5.6 -12.7°
Sets 22:49:15 0° 12° (NNE) 2,514 6.6 -13.2°
